This is the latest recevied weather packets stored in our database for station/object KC4JIR. If no packets are shown the sender has not sent any weather packets the latest 10 day(s).
| Time | Temp. | Humidity | Pressure | Rain* | Wind** | Luminosity | Snow |
|---|---|---|---|---|---|---|---|
| 1777731276 | 13.89° C | 99% | 1010.1 hPa | 1.78 mm | - | 117 W/m² | - |
| 1777730973 | 13.33° C | 99% | 1010.4 hPa | 1.78 mm | - | 73 W/m² | - |
| 1777730672 | 13.33° C | 99% | 1010.3 hPa | 0 mm | - | 86 W/m² | - |
| 1777730367 | 13.33° C | 99% | 1010.1 hPa | 0 mm | - | 69 W/m² | - |
| 1777730064 | 13.33° C | 99% | 1010.3 hPa | 0 mm | - | 57 W/m² | - |
| 1777729760 | 13.33° C | 99% | 1010.2 hPa | 0 mm | - | 37 W/m² | - |
| 1777729457 | 13.33° C | 99% | 1010.1 hPa | 0 mm | - | 34 W/m² | - |
| 1777729154 | 13.33° C | 99% | 1009.9 hPa | 0 mm | - | 46 W/m² | - |
| 1777728850 | 13.33° C | 99% | 1009.9 hPa | 1.27 mm | - | 68 W/m² | - |
| 1777728547 | 13.33° C | 99% | 1009.4 hPa | 1.27 mm | - | 64 W/m² | - |
| 1777728244 | 13.33° C | 99% | 1010.1 hPa | 0 mm | - | 57 W/m² | - |
| 1777727941 | 13.33° C | 99% | 1010.4 hPa | 0 mm | - | 33 W/m² | - |
| 1777727638 | 13.33° C | 99% | 1010.4 hPa | 1.78 mm | - | 35 W/m² | - |
| 1777727335 | 13.33° C | 99% | 1009.8 hPa | 1.78 mm | - | 70 W/m² | - |
| 1777727033 | 13.33° C | 99% | 1010.1 hPa | 0 mm | - | 65 W/m² | - |
| 1777726730 | 12.78° C | 99% | 1010.4 hPa | 1.27 mm | - | 42 W/m² | - |
| 1777726427 | 12.78° C | 99% | 1010.9 hPa | 3.05 mm | - | 39 W/m² | - |
| 1777726124 | 12.78° C | 99% | 1011.1 hPa | 3.56 mm | - | 39 W/m² | - |
| 1777725820 | 12.78° C | 99% | 1011 hPa | 6.1 mm | - | 28 W/m² | - |
| 1777725518 | 12.78° C | 99% | 1011 hPa | 8.89 mm | - | 25 W/m² | - |
| 1777725216 | 12.78° C | 99% | 1010.9 hPa | 7.87 mm | - | 13 W/m² | - |
| 1777724913 | 12.78° C | 99% | 1011.2 hPa | 3.05 mm | - | 7 W/m² | - |
| 1777724608 | 12.78° C | 99% | 1011 hPa | 1.27 mm | - | 4 W/m² | - |
| 1777724307 | 12.78° C | 99% | 1010.6 hPa | 1.27 mm | - | 6 W/m² | - |
| 1777724004 | 12.78° C | 99% | 1010.5 hPa | 0 mm | - | 7 W/m² | - |
* Rain latest hour (hover to see other rain measurements)
** Current wind speed in m/s (hover to see current wind gust speed)